Regional Weather Roundup
Issued by NWS

Home | Current Version | Previous Version | Text Only | Print | Product List | Glossary On
Versions: 1 2 3 4 5 6 7 8 9 10 11 12 13 14 15 16 17 18 19 20 21 22 23 24 25 26 27 28 29 30 31 32 33 34 35 36 37 38 39 40 41 42 43 44 45 46 47 48 49 50
000
ASUS44 KFWD 211115
RWRTX
NORTH TEXAS HOURLY WEATHER ROUNDUP
NATIONAL WEATHER SERVICE FORT WORTH TX
600 AM CDT FRI JUL 21 2017

NOTE: "FAIR" INDICATES FEW OR NO CLOUDS BELOW 12,000 FEET WITH NO
SIGNIFICANT WEATHER AND/OR OBSTRUCTIONS TO VISIBILITY.

TXZ118-119-211200-
DALLAS/FORT WORTH METROPLEX

CITY           SKY/WX    TMP DP  RH WIND       PRES   REMARKS
DFW AIRPORT    CLEAR     82  73  74 S8        29.99R
DALLAS LOVE    CLEAR     83  72  69 S5        30.00R
FTW MEACHAM    CLEAR     81  73  76 S7        30.00R
DAL-EXECUTIVE  CLEAR     79  73  82 VRB3      30.00R
FTW-ALLIANCE   CLEAR     79  72  79 CALM      29.99R
FTW-NAS-JRB    PTCLDY    82  72  71 S8        30.00R
FTW-SPINKS     CLEAR     77  71  81 S3        30.02R
ARLINGTON      CLEAR     79  73  82 S5        30.00R
GRAND PRAIRIE  CLEAR     81  70  69 S5        30.02R
ADDISON        CLEAR     82  72  69 S6        30.01S
MESQUITE       CLEAR     74  73  95 CALM      30.01R
LANCASTER      PTCLDY    76  72  86 CALM      30.01S
$$

TXZ091>094-102>105-117-120-121-131>134-211200-
NORTH CENTRAL TEXAS

CITY           SKY/WX    TMP DP  RH WIND       PRES   REMARKS
SHRMAN/DENISON PTCLDY    78  71  79 SE7       30.02R
GAINESVILLE    CLEAR     75  69  83 E3        30.02R
BOWIE          CLEAR     77  71  80 SE5       30.01R
BRIDGEPORT     CLEAR     73  69  87 CALM      30.01R
DECATUR        CLEAR     80  70  71 S9        30.01R
DENTON         CLEAR     78  72  81 S8        29.99R
MCKINNEY       CLEAR     77  75  93 S5        30.01R
BONHAM         CLEAR     77  72  83 S8        30.01S
GREENVILLE     CLEAR     79  73  83 CALM      30.02R
ROCKWALL       CLEAR     77  74  90 S7        30.02R
TERRELL        CLEAR     78  73  84 SE5       30.02R
WAXAHACHIE     PTCLDY    76  72  88 CALM      30.02R
CLEBURNE       CLEAR     77  75  94 S6        30.03R
GRANBURY       CLEAR     80  71  74 SE3       30.02R
$$

TXZ083>090-098>101-113>116-127>130-139>142-154-155-211200-
WESTERN NORTH TEXAS

CITY           SKY/WX    TMP DP  RH WIND       PRES   REMARKS
WICHITA FALLS  CLEAR     77  69  76 S12       29.97R
WF-KICKAPOO    CLEAR     77  70  79 SE7       29.99S
VERNON         PTCLDY    78  62  58 S6        29.98S
ABILENE        CLEAR     77  65  66 S8        30.03S
ABILENE-DYESS  CLEAR     77  64  63 S8        30.01S
GRAHAM         PTCLDY    76  68  76 SE3       29.99R
BRECKENRIDGE   PTCLDY    79  65  62 S6        30.01R
CISCO          CLEAR     73  66  78 S7        30.03S
EASTLAND       PTCLDY    70  67  88 CALM      30.03R
RANGER         MOCLDY    76  67  75 S5        30.03R
MINERAL WELLS  CLEAR     75  70  84 SE8       29.99R
STEPHENVILLE   PTCLDY    75  68  79 CALM      30.05R
COMANCHE       CLEAR     76  69  79 S6        30.03S
BROWNWOOD      PTCLDY    75  68  78 SE5       30.03R
COLEMAN        CLEAR     77  65  66 S6        30.04R
$$

TXZ143>147-156>162-174-175-211200-
CENTRAL TEXAS

CITY           SKY/WX    TMP DP  RH WIND       PRES   REMARKS
WACO           CLEAR     79  74  84 S9        30.01R
WACO-MCGREGOR  CLEAR     76  72  87 S3        30.01R
HILLSBORO      CLEAR     78  73  83 SE6       30.01R
CORSICANA      CLEAR     78  75  90 S7        30.02R
MEXIA          CLEAR     74  73  95 SE6       30.02R
HEARNE         CLEAR     75  75 100 E3        30.03R
CAMERON        CLEAR     78  74  87 S5        30.01S
TEMPLE         CLEAR     76  72  87 S7        30.02R
KILLEEN        CLEAR     78  69  75 S7        30.01S
KILLEEN-SKYLRK CLEAR     77  70  79 S6        30.02R
FORT HOOD      CLEAR     77  69  76 S5        29.99R
HAMILTON       CLEAR     76  69  78 S7        30.04R
LAMPASAS       CLEAR     76  70  82 CALM      30.02S
$$

TXZ095>097-106>112-122>126-135>138-148>153-164>167-211200-
EAST TEXAS

CITY           SKY/WX    TMP DP  RH WIND       PRES   REMARKS
PARIS            N/A     76  74  93 SE3         N/A
SULPHUR SPRNGS CLEAR     79  73  80 S5        30.04S
MOUNT PLEASANT PTCLDY    76  76 100 CALM      30.04R
GILMER         PTCLDY    77  73  86 CALM      30.03R
MINEOLA        CLEAR     73  72  94 CALM      30.03R
TYLER          CLEAR     76  74  93 CALM      30.03R
LONGVIEW       CLEAR     77  75  93 S3        30.02R
MARSHALL         N/A     73  70  92 MISG      30.04S
ATHENS         CLEAR     72  72 100 CALM      30.01S
PALESTINE      CLEAR     74  73  96 CALM      30.04R
JACKSONVILLE   CLEAR     77  74  90 CALM      30.06S
HENDERSON      CLEAR     73  73  97 CALM      30.04S
CENTER         MOSUNNY   80  78  95 CALM      30.04R FOG
NACOGDOCHES      N/A     73  72  94 CALM      30.01S
LUFKIN         CLEAR     76  74  93 CALM      30.03R
$$

SUPPLEMENTAL OBSERVATIONS (NWS FORT WORTH AREA)

CITY           SKY/WX    TMP DP  RH WIND       PRES   REMARKS
DENISON DAM      N/A     77  72  83 SE2         N/A
CADDO GRASSLND   N/A     77  72  83 S3          N/A
PAT MAYSE LAKE   N/A     79  75  89 SE8         N/A
LBJ GRASSLAND    N/A     79  70  73 SE5         N/A
POSSUM KINGDOM   N/A     79  66  65 SE6         N/A
GRANBURY         N/A     79  70  73 SE3         N/A
COMANCHE         N/A     75  68  78 S7          N/A
MCGREGOR         N/A     75  72  88 SW2         N/A
TEMPLE           N/A     77  72  83 S2          N/A
LAKE LIMESTONE   N/A     73  70  88 SE1         N/A
ATHENS           N/A     79  73  83 S5          N/A
$$

SUPPLEMENTAL OBSERVATIONS (NWS NORMAN AREA)

CITY           SKY/WX    TMP DP  RH WIND       PRES   REMARKS
GOODLETT         N/A     76  62  60 S6        29.98S
ODELL            N/A     78  66  65 SE9       29.99S
CROWELL          N/A     77  64  65 S5        30.00S
KNOX CITY        N/A     75  62  63 S6        30.01R
SEYMOUR          N/A     79  64  59 S8        29.99R
MILLERS CREEK    N/A     77  64  65 S7          N/A
$$

SUPPLEMENTAL OBSERVATIONS (NWS SAN ANGELO AREA)

CITY           SKY/WX    TMP DP  RH WIND       PRES   REMARKS
WEINERT          N/A     78  64  61 S7        30.01R
HASKELL          N/A     78  61  55 S7        30.01S
THROCKMORTON     N/A     76  66  69 S5        30.02R
STAMFORD         N/A     79  64  61 S8        30.02S
CLYDE            N/A     74  64  72 S6        30.06S
HAMBY            N/A     77  63  61 S7          N/A
IVIE RESERVOIR   N/A     77  68  73 SE7         N/A
COLORADO BEND    N/A     77  68  73 S5          N/A
$$

SUPPLEMENTAL OBSERVATIONS (NWS SHREVEPORT AREA)

CITY           SKY/WX    TMP DP  RH WIND       PRES   REMARKS
CLARKSVILLE      N/A     77  73  88 S2          N/A
TEXARKANA        N/A     73  72  94 CALM        N/A
LINDEN           N/A     77  73  88 CALM        N/A
CADDO LAKE       N/A     72  70  94 CALM        N/A
GILMER           N/A     75  72  88 SW2         N/A
HENDERSON        N/A     73  72  94 CALM        N/A
LUFKIN           N/A     75  73  94 MISG        N/A
N SABINE NF      N/A     75  73  94 MISG        N/A
S SABINE NF      N/A     75  73  94 S1          N/A
$$

SUPPLEMENTAL OBSERVATIONS ARE A COLLECTION OF AUTOMATED INSTRUMENTS
THAT ARE MAINTAINED BY A VARIETY OF FEDERAL AND STATE AGENCIES.
CERTAIN ELEMENTS...SUCH AS HUMIDITY VALUES AND SUSTAINED WIND
SPEEDS...MAY BE APPROXIMATED.




USA.gov is the U.S. government's official web portal to all federal, state and local government web resources and services.